[[{"header":{"parameterUnit":"m.s-1","parameterCategory":1,"la1":30.2991,"la2":30.254,"lo1":-89.0895,"lo2":-89.0444,"dy":0.0017,"dx":0.0017,"nx":28,"ny":28,"refTime":"2025-04-01T09:00:00:Z","depth":0,"parameterNumber":2,"parameterNumberName":"U-component_of_WINDS"},"data":[0,0,0,0,0,0,0,0,0,0,0,0,0,0,0,0,0,0,0,0,0,0,0,0,0,0,0,0,0,0,0,0,0,0,0,0,0,0,0,0,0,0,0,0,0,0,0,0,0,0,0,0,0,0,0,0,0,0,-0.4094,-0.4094,0,-0.4126,-0.4126,-0.4126,-0.4149,-0.4149,-0.4149,-0.415,-0.4182,-0.4183,-0.4184,0,0,0,0,0,0,0,0,0,0,0,0,0,-0.4052,-0.4052,-0.4094,-0.4094,-0.4095,-0.4126,-0.4126,-0.4127,-0.4149,-0.4149,-0.415,-0.415,-0.4182,-0.4183,-0.4184,0,0,0,0,0,0,0,0,0,0,0,0,0,-0.4075,-0.4053,-0.4094,-0.411,-0.4111,-0.4126,-0.4126,-0.4127,-0.4149,-0.4149,-0.415,-0.415,-0.4182,-0.4183,-0.4184,-0.4185,0,0,-0.4187,-0.4188,0,0,0,0,0,0,0,0,-0.4074,-0.4077,-0.4107,-0.4109,-0.4111,-0.4134,-0.4123,-0.4146,-0.4149,-0.4135,-0.415,-0.415,-0.4166,-0.4168,-0.4174,-0.4187,-0.4188,-0.4187,-0.4188,-0.4188,-0.4189,0,0,0,0,0,0,0,-0.4072,-0.4076,-0.4106,-0.4107,-0.411,-0.4115,-0.4119,-0.4128,-0.4148,-0.4136,-0.4138,-0.4141,-0.4167,-0.4173,-0.4175,-0.4189,-0.4187,-0.4188,-0.4189,-0.4189,-0.4202,-0.4202,0,0,0,0,0,0,-0.4068,-0.4074,-0.4105,-0.4107,-0.4093,-0.4115,-0.412,-0.4126,-0.4148,-0.4152,-0.4141,-0.4142,-0.4171,-0.4174,-0.4176,-0.4177,-0.4188,-0.4189,-0.419,-0.4202,-0.4202,-0.4202,0,0,0,0,0,0,-0.4067,-0.4071,-0.4104,-0.4091,-0.4096,-0.4116,-0.4123,-0.4126,-0.4132,-0.4152,-0.4156,-0.4143,-0.4171,-0.4175,-0.4182,-0.4179,-0.419,-0.4191,-0.4203,-0.4202,-0.4202,-0.4181,0,0,0,0,0,0,-0.4066,-0.407,-0.4071,-0.4091,-0.4097,-0.411,-0.4123,-0.4127,-0.4134,-0.4136,-0.4155,-0.4158,-0.4172,-0.4181,-0.4183,-0.4181,-0.4192,-0.4203,-0.4202,-0.4202,-0.4182,-0.418,-0.4178,0,0,0,0,0,-0.4064,-0.4065,-0.4071,-0.4075,-0.4098,-0.411,-0.4113,-0.4128,-0.4134,-0.4134,-0.4147,-0.4158,-0.4179,-0.4181,-0.4184,-0.4182,-0.4203,-0.4203,-0.4202,-0.4183,-0.418,-0.4178,0,0,0,0,0,0,-0.4045,-0.4068,-0.4075,-0.4082,-0.4094,-0.4114,-0.4115,-0.4125,-0.4136,-0.4137,-0.4155,-0.4159,-0.4165,-0.4174,-0.4176,-0.4183,-0.4192,-0.4192,-0.4177,-0.4175,-0.4173,-0.417,-0.4193,0,0,0,0,0,-0.4041,-0.4049,-0.4068,-0.4072,-0.4078,-0.4095,-0.4101,-0.4112,-0.4125,-0.413,-0.4143,-0.4155,-0.4164,-0.417,-0.418,-0.4184,-0.4188,-0.4184,-0.4182,-0.418,-0.4179,-0.4181,-0.4179,-0.4199,-0.4199,-0.4199,0,0,-0.4033,-0.4047,-0.4051,-0.4069,-0.4079,-0.4086,-0.41,-0.4107,-0.4112,-0.4131,-0.4139,-0.4149,-0.4163,-0.4169,-0.4172,-0.4177,-0.4174,-0.4179,-0.4177,-0.4178,-0.418,-0.4178,-0.4176,-0.4199,-0.4199,-0.4199,0,0,-0.4023,-0.4035,-0.4039,-0.4048,-0.4064,-0.4075,-0.4076,-0.4094,-0.4101,-0.4109,-0.4123,-0.413,-0.4146,-0.4155,-0.4162,-0.4153,-0.4163,-0.4156,-0.4145,-0.4146,-0.4145,-0.4143,-0.4139,-0.4137,-0.4156,-0.4156,-0.4156,0,-0.4012,-0.4024,-0.404,-0.4046,-0.4052,-0.4069,-0.4073,-0.4081,-0.4099,-0.4103,-0.4109,-0.4128,-0.4139,-0.4146,-0.4144,-0.4149,-0.415,-0.4154,-0.4144,-0.4142,-0.4141,-0.4137,-0.4136,-0.4155,-0.4155,-0.4155,-0.4155,0,-0.4009,-0.4016,-0.4018,-0.4033,-0.404,-0.4045,-0.4061,-0.4066,-0.4076,-0.4086,-0.4093,-0.4107,-0.4119,-0.4122,-0.4131,-0.413,-0.4132,-0.414,-0.415,-0.4138,-0.4134,-0.4133,-0.4153,-0.4153,-0.4154,-0.4154,0,0,-0.3988,-0.4011,-0.4011,-0.4018,-0.4035,-0.4041,-0.4046,-0.4057,-0.4061,-0.4072,-0.4076,-0.4088,-0.4096,-0.4103,-0.4114,-0.4115,-0.4106,-0.4123,-0.4124,-0.4118,-0.4103,-0.4095,-0.4094,-0.4112,-0.4112,-0.4112,-0.4101,0,-0.398,-0.399,-0.4003,-0.4008,-0.4014,-0.403,-0.4034,-0.4044,-0.4054,-0.4061,-0.4071,-0.4079,-0.4089,-0.4093,-0.4095,-0.4106,-0.4103,-0.4108,-0.4115,-0.4115,-0.411,-0.4092,-0.4085,-0.4074,-0.41,-0.41,-0.41,0,-0.3972,-0.3982,-0.3987,-0.4002,-0.4005,-0.4009,-0.4019,-0.4025,-0.4037,-0.4044,-0.4052,-0.4063,-0.4068,-0.4077,-0.4084,-0.4087,-0.4091,-0.4096,-0.4096,-0.4097,-0.4106,-0.4091,-0.4071,-0.4068,-0.4098,-0.4098,-0.4098,0,-0.3955,-0.3969,-0.3974,-0.3979,-0.3997,-0.3999,-0.4006,-0.4019,-0.4024,-0.4033,-0.4036,-0.4046,-0.4051,-0.4058,-0.4072,-0.4077,-0.4076,-0.4086,-0.4081,-0.4081,-0.408,-0.408,-0.4059,-0.4084,-0.4084,-0.4084,-0.4084,0,-0.3944,-0.3947,-0.3966,-0.3969,-0.3971,-0.3986,-0.3988,-0.3997,-0.4008,-0.4012,-0.4026,-0.4029,-0.4047,-0.4052,-0.4063,-0.4066,-0.4069,-0.4074,-0.4076,-0.4072,-0.4071,-0.4074,-0.4075,-0.4084,-0.4084,-0.4084,-0.4084,0,-0.3925,-0.3939,-0.3944,-0.396,-0.3964,-0.3965,-0.3979,-0.3982,-0.3992,-0.3997,-0.3999,-0.4014,-0.4021,-0.4035,-0.4046,-0.4053,-0.4053,-0.4058,-0.4049,-0.405,-0.4044,-0.4043,-0.4023,-0.4021,-0.4049,-0.4048,-0.4048,0,-0.3917,-0.3919,-0.3935,-0.3938,-0.3945,-0.3951,-0.3956,-0.3971,-0.3975,-0.3988,-0.3989,-0.3997,-0.4004,-0.4014,-0.4026,-0.4034,-0.4039,-0.4031,-0.404,-0.4035,-0.4037,-0.4036,-0.4036,-0.4029,-0.4028,-0.4028,-0.4028,0,-0.3901,-0.3907,-0.3914,-0.3922,-0.3927,-0.3935,-0.3943,-0.3945,-0.3962,-0.3966,-0.3973,-0.3978,-0.3988,-0.3995,-0.4005,-0.4012,-0.4022,-0.4025,-0.4024,-0.4019,-0.4013,-0.4014,-0.4042,-0.4025,-0.4025,-0.4026,-0.4026,-0.4026,-0.3887,-0.3889,-0.3899,-0.3906,-0.3913,-0.392,-0.3923,-0.3932,-0.3938,-0.3947,-0.3956,-0.3961,-0.3971,-0.3985,-0.3991,-0.3996,-0.4001,-0.4,-0.3999,-0.3998,-0.3996,-0.4013,-0.3998,-0.3998,-0.3998,-0.3998,-0.3998,0,-0.3871,-0.3878,-0.3883,-0.3894,-0.3898,-0.3907,-0.3916,-0.3919,-0.3923,-0.3932,-0.3938,-0.3945,-0.3951,-0.3963,-0.3971,-0.3972,-0.3976,-0.3973,-0.3972,-0.3974,-0.3992,-0.3991,-0.3969,-0.3969,-0.3969,-0.3969,-0.3969,-0.3969,-0.3862,-0.3865,-0.3872,-0.3878,-0.3885,-0.389,-0.3894,-0.39,-0.3907,-0.3913,-0.3918,-0.3926,-0.3936,-0.3943,-0.3949,-0.3952,-0.3954,-0.3949,-0.3953,-0.397,-0.3973,-0.3975,-0.3975,-0.3949,-0.3949,-0.3935,-0.3935,-0.3935]},{"header":{"parameterUnit":"m.s-1","parameterCategory":1,"la1":30.2991,"la2":30.254,"lo1":-89.0895,"lo2":-89.0444,"dy":0.0017,"dx":0.0017,"nx":28,"ny":28,"refTime":"2025-04-01T09:00:00:Z","depth":0,"parameterNumber":3,"parameterNumberName":"V-component_of_WINDS"},"data":[0,0,0,0,0,0,0,0,0,0,0,0,0,0,0,0,0,0,0,0,0,0,0,0,0,0,0,0,0,0,0,0,0,0,0,0,0,0,0,0,0,0,0,0,0,0,0,0,0,0,0,0,0,0,0,0,0,0,-1.2864,-1.2863,0,-1.2819,-1.2818,-1.2818,-1.2853,-1.2855,-1.2856,-1.2858,-1.2812,-1.2809,-1.2806,0,0,0,0,0,0,0,0,0,0,0,0,0,-1.2978,-1.2976,-1.2864,-1.2863,-1.2863,-1.2819,-1.2818,-1.2818,-1.2853,-1.2855,-1.2857,-1.2858,-1.2812,-1.2809,-1.2806,0,0,0,0,0,0,0,0,0,0,0,0,0,-1.293,-1.2975,-1.2864,-1.2875,-1.2875,-1.2819,-1.2818,-1.2818,-1.2853,-1.2855,-1.2857,-1.2859,-1.2813,-1.281,-1.2806,-1.2736,0,0,-1.2794,-1.2792,0,0,0,0,0,0,0,0,-1.2933,-1.2926,-1.2874,-1.2874,-1.2875,-1.2844,-1.2842,-1.279,-1.2852,-1.2861,-1.2858,-1.286,-1.282,-1.2816,-1.2803,-1.2734,-1.2732,-1.2793,-1.2791,-1.2789,-1.2788,0,0,0,0,0,0,0,-1.2936,-1.2928,-1.2846,-1.2873,-1.2873,-1.2882,-1.2877,-1.2832,-1.2829,-1.2861,-1.2863,-1.2857,-1.2821,-1.2806,-1.2802,-1.2731,-1.2793,-1.279,-1.2787,-1.2786,-1.2599,-1.2597,0,0,0,0,0,0,-1.2939,-1.2931,-1.2847,-1.2845,-1.291,-1.2878,-1.2873,-1.2851,-1.2829,-1.2828,-1.2855,-1.2859,-1.2812,-1.2806,-1.28,-1.2714,-1.2789,-1.2786,-1.2783,-1.2602,-1.2599,-1.2596,0,0,0,0,0,0,-1.2941,-1.2931,-1.2849,-1.2888,-1.2879,-1.2873,-1.2849,-1.2849,-1.2835,-1.2825,-1.2825,-1.2841,-1.2814,-1.2806,-1.2751,-1.2713,-1.2784,-1.278,-1.2605,-1.2601,-1.2597,-1.2543,0,0,0,0,0,0,-1.2944,-1.2932,-1.2905,-1.2887,-1.2876,-1.2801,-1.2847,-1.2847,-1.2828,-1.2832,-1.2812,-1.2811,-1.2815,-1.2757,-1.2747,-1.2709,-1.2777,-1.2608,-1.2603,-1.2598,-1.2548,-1.2538,-1.2529,0,0,0,0,0,-1.2948,-1.2893,-1.2904,-1.2894,-1.2844,-1.2798,-1.2792,-1.2798,-1.2825,-1.2798,-1.2791,-1.2811,-1.272,-1.2751,-1.274,-1.27,-1.261,-1.2604,-1.2599,-1.2552,-1.254,-1.2529,0,0,0,0,0,0,-1.2907,-1.2891,-1.2903,-1.284,-1.282,-1.2805,-1.2771,-1.2785,-1.2757,-1.2763,-1.2772,-1.2767,-1.2708,-1.27,-1.2734,-1.263,-1.2669,-1.2661,-1.2637,-1.2625,-1.2616,-1.2618,-1.2774,0,0,0,0,0,-1.289,-1.2855,-1.2843,-1.2789,-1.2778,-1.2776,-1.2757,-1.2763,-1.2743,-1.2735,-1.2725,-1.2704,-1.267,-1.2648,-1.2617,-1.2548,-1.2542,-1.2515,-1.2506,-1.2498,-1.249,-1.2449,-1.2436,-1.2577,-1.2577,-1.2577,0,0,-1.2856,-1.2843,-1.282,-1.278,-1.2765,-1.2728,-1.2769,-1.2728,-1.27,-1.2729,-1.2675,-1.2667,-1.2644,-1.2581,-1.2553,-1.2572,-1.245,-1.249,-1.2484,-1.248,-1.2442,-1.2428,-1.2416,-1.2573,-1.2573,-1.2574,0,0,-1.2773,-1.2761,-1.2712,-1.2697,-1.2674,-1.2673,-1.2661,-1.2643,-1.2638,-1.2584,-1.2604,-1.2571,-1.2514,-1.2496,-1.2479,-1.2388,-1.2403,-1.2378,-1.2326,-1.2287,-1.2275,-1.2266,-1.2229,-1.2217,-1.237,-1.237,-1.237,0,-1.2733,-1.2677,-1.2686,-1.2642,-1.2623,-1.2647,-1.2597,-1.2582,-1.255,-1.2535,-1.2558,-1.2484,-1.2471,-1.2402,-1.238,-1.2367,-1.2352,-1.2379,-1.2277,-1.2267,-1.2258,-1.2223,-1.221,-1.2367,-1.2367,-1.2367,-1.2368,0,-1.2627,-1.2588,-1.2552,-1.2519,-1.2496,-1.245,-1.245,-1.2426,-1.2434,-1.243,-1.2374,-1.2359,-1.2324,-1.2309,-1.2317,-1.224,-1.2252,-1.2276,-1.2314,-1.2241,-1.2208,-1.2195,-1.2362,-1.2363,-1.2364,-1.2365,0,0,-1.2516,-1.2487,-1.2474,-1.2457,-1.2434,-1.2403,-1.2358,-1.2322,-1.23,-1.2277,-1.2237,-1.2187,-1.2208,-1.2189,-1.2196,-1.2161,-1.2085,-1.2189,-1.2188,-1.2167,-1.1995,-1.1975,-1.196,-1.2097,-1.2095,-1.2093,-1.1996,0,-1.2429,-1.2348,-1.2354,-1.2277,-1.224,-1.2262,-1.2222,-1.2202,-1.2197,-1.2164,-1.2159,-1.2122,-1.2154,-1.2142,-1.2109,-1.2101,-1.205,-1.2109,-1.2057,-1.2055,-1.2058,-1.1944,-1.1923,-1.1832,-1.1984,-1.1982,-1.198,0,-1.2317,-1.2288,-1.2207,-1.2186,-1.2171,-1.2134,-1.2101,-1.207,-1.2048,-1.2046,-1.2024,-1.2036,-1.1988,-1.203,-1.1963,-1.2003,-1.1982,-1.1975,-1.1972,-1.1964,-1.2011,-1.193,-1.1804,-1.1788,-1.1961,-1.1963,-1.1964,0,-1.2238,-1.2181,-1.2124,-1.211,-1.2085,-1.2058,-1.2047,-1.2027,-1.2004,-1.1976,-1.1961,-1.1928,-1.1908,-1.1882,-1.1884,-1.1915,-1.1814,-1.1857,-1.1809,-1.1809,-1.1784,-1.1785,-1.1649,-1.1777,-1.1778,-1.1778,-1.1778,0,-1.2138,-1.2087,-1.2088,-1.2052,-1.1995,-1.2003,-1.1945,-1.1937,-1.1918,-1.1881,-1.19,-1.1864,-1.187,-1.1834,-1.1836,-1.1778,-1.1771,-1.1766,-1.1767,-1.1762,-1.1762,-1.1746,-1.1751,-1.1774,-1.1775,-1.1776,-1.1776,0,-1.204,-1.2039,-1.1978,-1.1959,-1.1953,-1.1911,-1.1895,-1.186,-1.1857,-1.1809,-1.1798,-1.1793,-1.1751,-1.1751,-1.1705,-1.1705,-1.1633,-1.1643,-1.164,-1.164,-1.1591,-1.1594,-1.1437,-1.1415,-1.1561,-1.156,-1.1559,0,-1.1975,-1.1935,-1.1912,-1.1888,-1.1874,-1.1835,-1.1812,-1.1818,-1.1793,-1.1763,-1.1732,-1.1692,-1.166,-1.1592,-1.1584,-1.1547,-1.1553,-1.1501,-1.1548,-1.1544,-1.1548,-1.1548,-1.1543,-1.1491,-1.1489,-1.1488,-1.1487,0,-1.1857,-1.1858,-1.1824,-1.1788,-1.176,-1.1732,-1.1707,-1.1686,-1.1689,-1.166,-1.1617,-1.1592,-1.1543,-1.1502,-1.1467,-1.1454,-1.1469,-1.1473,-1.1459,-1.1452,-1.145,-1.1446,-1.161,-1.1475,-1.1476,-1.1477,-1.1478,-1.1478,-1.1771,-1.1735,-1.1712,-1.1673,-1.1654,-1.1629,-1.1595,-1.1587,-1.1551,-1.1511,-1.1518,-1.1469,-1.1446,-1.1399,-1.1384,-1.1345,-1.1363,-1.1344,-1.1339,-1.1333,-1.1325,-1.1459,-1.1339,-1.134,-1.134,-1.134,-1.134,0,-1.165,-1.1636,-1.16,-1.1563,-1.1531,-1.155,-1.1522,-1.1494,-1.1451,-1.1428,-1.1395,-1.1345,-1.1305,-1.1293,-1.1254,-1.1225,-1.1231,-1.1214,-1.1214,-1.121,-1.1313,-1.1327,-1.121,-1.121,-1.121,-1.121,-1.121,-1.121,-1.1584,-1.1524,-1.1522,-1.1452,-1.1439,-1.139,-1.1372,-1.1349,-1.133,-1.1273,-1.1239,-1.1232,-1.1212,-1.1172,-1.1135,-1.1133,-1.1116,-1.1095,-1.1095,-1.1191,-1.1204,-1.1216,-1.1229,-1.1093,-1.1092,-1.0995,-1.0994,-1.0993]}]]